Wind_Speed
7 7 8 9 9 10 11 11 12 12 12 13 14 14 14 13 13 13 14 16 16 16 16 15 14 13 12 11 10 11 11 11 10 10 11 11 10 8 6 5 5 5 6
6 6 6 7 8 9 10 10 10 10 10 11 12 13 13 12 12 12 14 15 17 17 16 15 14 14 13 11 10 10 10 10 9 9 10 10 10 9 7 5 3 3 3
5 5 5 5 6 7 8 8 8 8 9 10 11 11 12 11 11 11 13 14 16 17 16 15 14 14 13 12 11 9 8 8 9 9 8 9 9 9 9 7 5 3 2
5 5 6 6 6 6 6 6 6 7 8 9 9 10 10 10 10 10 12 13 15 16 16 15 14 13 13 13 12 10 8 7 7 7 7 6 6 6 7 7 6 5 4
7 8 8 8 8 6 5 5 6 7 8 8 9 9 9 10 10 10 11 13 15 16 17 16 15 14 13 13 13 12 9 7 6 6 6 6 5 4 4 4 4 5 5
8 9 10 10 9 9 8 8 8 9 10 10 10 10 9 10 10 11 12 13 15 16 16 16 15 14 13 13 13 13 11 9 6 5 5 7 6 4 4 3 2 2 3
8 9 10 11 11 11 11 11 12 12 13 13 13 12 11 11 11 12 13 14 15 15 16 15 15 14 13 12 12 12 12 11 8 5 5 6 6 5 5 5 4 3 2
10 10 10 11 12 13 13 14 15 15 16 16 15 14 13 13 13 14 15 15 16 16 16 16 15 14 13 12 12 11 11 11 10 8 6 6 7 7 7 7 6 6 5
11 11 11 11 12 12 13 14 16 17 18 17 16 16 15 15 15 16 16 17 17 17 17 16 16 16 15 13 12 11 10 10 10 9 8 8 8 9 9 8 8 8 7
11 12 12 12 11 12 13 14 15 17 18 18 18 17 16 16 16 17 18 18 19 18 18 17 17 17 17 16 14 13 11 10 10 10 10 10 9 9 10 10 10 11 10
11 11 12 12 12 12 13 14 15 16 18 18 18 18 17 18 18 19 19 20 20 19 18 18 17 17 18 18 17 16 14 12 11 11 11 11 11 10 9 10 12 13 13
12 12 13 14 15 15 15 16 16 17 18 19 19 20 20 20 20 21 21 21 21 20 19 18 18 18 18 18 18 18 17 16 14 13 13 13 12 12 11 10 12 13 15
16 16 18 20 20 20 19 20 20 20 20 21 22 23 23 23 24 24 24 24 23 22 21 20 18 18 18 18 19 19 19 19 18 16 16 16 15 14 13 13 13 14 15
21 20 21 23 25 26 25 25 26 25 25 25 25 26 27 27 27 27 28 28 27 25 23 22 21 20 19 19 20 20 21 22 22 21 21 20 19 17 17 16 16 16 16
24 24 24 24 26 29 30 29 30 30 30 30 29 29 30 30 30 30 30 30 29 29 27 25 24 23 23 22 21 22 23 24 25 25 25 25 24 22 21 20 19 19 19
28 28 29 28 29 31 33 34 33 33 33 33 33 34 34 33 33 34 34 33 32 31 30 28 27 26 25 25 25 25 25 25 27 28 28 29 29 28 26 24 23 22 23
33 34 35 34 34 35 37 39 38 37 36 36 36 36 36 36 36 37 37 36 35 34 33 31 30 29 28 28 29 29 28 28 29 31 32 32 33 33 32 30 28 26 25
37 37 38 38 37 38 39 40 42 41 39 38 37 37 37 38 38 39 40 39 39 38 36 34 32 32 32 33 33 32 31 31 31 32 34 35 37 37 36 35 33 30 28
37 36 36 35 36 36 37 38 38 39 39 39 39 39 39 39 39 40 40 40 41 40 39 37 36 35 35 36 36 34 33 32 31 32 33 36 38 40 40 39 36 34 31
36 35 36 36 36 37 36 36 37 37 38 38 39 39 40 40 40 40 40 40 42 42 41 40 38 37 37 38 37 36 34 33 32 33 34 37 38 40 42 42 40 38 35
36 38 38 38 38 38 39 39 38 38 38 38 38 39 40 41 41 42 41 42 43 42 42 41 40 38 37 38 39 37 36 34 34 35 37 38 38 40 42 43 42 41 38
37 38 37 38 38 39 39 40 41 40 40 40 40 40 40 41 42 43 43 43 43 43 42 40 40 39 37 38 39 38 36 35 36 38 38 39 38 39 40 41 42 42 40
35 37 37 37 37 37 37 38 39 40 39 39 39 39 40 41 42 43 44 44 44 44 43 42 42 41 39 38 38 39 37 36 36 36 38 39 38 37 38 39 41 41 38
35 35 35 36 36 36 37 38 38 38 38 37 36 36 37 38 39 40 41 42 43 43 42 41 41 41 39 38 38 38 38 39 38 36 37 38 37 36 36 37 37 37 36
33 34 34 36 38 38 38 38 39 40 39 38 37 36 35 35 36 37 38 39 40 41 41 41 41 41 40 38 38 39 39 40 40 39 38 36 36 35 34 34 34 34 34
32 33 34 36 38 40 40 40 40 41 41 41 40 39 38 37 37 37 38 39 40 41 41 42 42 42 41 41 41 41 42 42 42 40 38 36 34 34 33 33 33 34 32
Wind_Direction
73 63 54 44 34 27 24 23 25 25 24 21 18 16 17 21 24 25 25 24 24 24 24 22 19 16 16 19 27 33 37 40 43 45 49 55 64 76 89 95 98 94 82
65 55 47 36 28 23 20 21 23 26 27 23 18 15 15 19 24 24 21 20 19 18 19 20 20 18 15 11 13 20 27 28 29 32 38 45 51 60 71 79 87 89 79
50 40 28 19 18 18 20 20 23 24 23 20 15 12 12 14 18 18 17 14 12 12 11 11 14 15 15 13 9 9 16 21 19 19 25 35 42 48 57 62 62 61 58
8 358 351 350 356 3 9 12 12 9 7 8 6 3 4 5 6 6 6 5 5 5 5 5 6 9 11 11 10 5 4 11 13 9 9 20 32 35 46 53 54 54 51
351 340 336 334 334 334 335 336 335 337 341 345 347 348 350 351 350 351 351 352 354 354 355 356 358 1 5 7 8 8 3 359 360 356 350 354 10 13 20 34 42 45 44
338 332 328 326 324 321 317 313 313 316 319 322 326 330 334 336 336 335 337 338 340 343 345 346 348 351 355 360 3 5 6 0 351 342 330 327 338 340 333 338 340 6 22
322 321 319 316 315 313 310 307 306 307 309 311 314 317 321 323 325 325 326 327 328 330 332 333 335 337 341 346 352 358 2 2 356 335 311 302 309 309 299 295 290 294 326
311 309 309 307 307 308 307 307 305 305 306 308 308 310 313 316 319 320 321 323 323 323 323 323 322 323 326 329 335 344 352 356 358 348 316 290 284 284 283 281 278 278 283
302 301 302 303 304 305 308 309 308 307 306 306 306 307 309 312 316 320 322 324 324 323 321 318 315 312 311 313 316 323 333 341 347 348 334 312 292 279 276 276 275 274 275
301 299 299 298 297 299 303 306 308 308 306 304 304 306 307 310 314 317 320 323 325 325 323 319 315 310 306 304 303 304 310 318 328 333 332 329 318 299 280 274 273 274 274
305 302 303 301 296 295 297 300 302 304 303 302 301 301 304 306 310 314 316 318 320 322 322 321 317 312 307 303 298 294 295 298 307 314 319 323 322 315 298 282 276 274 274
303 302 301 301 298 296 295 295 295 297 297 297 298 298 299 300 303 307 310 312 314 316 317 317 315 311 307 302 296 290 286 285 287 294 301 308 311 315 314 304 291 281 276
291 293 295 296 295 295 295 293 291 289 289 291 293 295 296 296 298 301 303 304 305 308 309 309 308 306 303 299 294 288 282 276 275 279 285 291 298 307 310 307 301 291 282
289 288 289 292 293 292 291 290 289 287 286 286 288 290 291 292 294 296 298 299 301 302 302 301 301 298 297 294 289 286 281 277 274 274 277 281 286 291 296 296 296 294 290
291 289 287 285 286 287 287 286 286 286 286 286 285 285 285 287 288 290 291 292 293 294 295 295 296 297 294 292 287 284 280 277 274 273 272 272 274 276 280 284 288 290 290
290 288 285 282 281 282 281 280 279 280 281 282 283 283 283 283 284 285 285 285 286 286 288 290 290 290 290 288 285 280 278 275 271 269 268 268 269 269 270 274 279 284 286
293 290 287 283 282 280 279 279 278 277 276 276 276 277 278 278 278 279 279 280 280 281 283 285 285 284 286 285 282 279 276 274 271 267 265 264 265 266 267 269 272 276 280
296 292 287 285 285 283 281 280 280 280 279 278 277 275 273 272 272 273 274 274 275 277 278 280 281 282 284 286 282 278 275 274 273 270 267 265 263 262 263 264 267 269 274
299 295 292 287 285 284 282 281 281 280 279 278 277 275 274 273 272 272 273 274 273 274 275 278 279 280 282 285 284 279 276 275 274 273 271 268 265 262 260 261 262 265 269
301 298 296 291 288 286 284 282 280 279 278 276 276 275 274 275 274 274 275 276 277 276 275 276 276 278 281 281 282 279 277 276 276 276 275 272 268 264 261 260 260 261 265
298 298 297 294 290 287 284 283 281 279 277 276 275 274 274 275 275 276 276 277 279 280 281 279 279 282 283 283 282 280 278 278 279 278 277 275 271 267 263 260 258 258 260
297 296 296 293 290 288 286 284 281 279 277 276 275 274 273 274 275 276 277 278 280 281 282 282 282 284 283 283 282 280 278 278 280 278 278 277 273 269 264 259 256 256 256
296 295 294 292 291 290 289 287 285 283 281 278 276 276 275 274 274 275 276 277 278 278 280 281 282 283 283 283 283 282 281 280 278 276 277 276 273 269 265 259 256 252 250
296 296 295 293 291 290 289 288 287 287 286 284 282 280 278 277 276 275 276 276 277 278 279 280 281 282 281 281 280 281 282 282 281 278 275 274 272 269 263 257 255 249 247
299 297 297 295 293 291 290 288 287 287 286 286 285 285 283 282 280 279 279 279 279 280 280 281 280 281 280 280 280 281 282 282 283 280 276 271 270 266 261 254 250 247 247
304 304 303 300 296 293 291 289 287 285 284 284 284 284 284 284 283 282 282 282 282 282 282 282 281 281 280 280 280 280 282 282 282 280 276 270 267 265 261 254 248 245 245
Height
5930 5929 5929 5929 5928 5928 5927 5927 5927 5927 5926 5926 5925 5924 5923 5921 5920 5919 5918 5916 5915 5913 5911 5909 5907 5905 5904 5903 5902 5901 5900 5899 5898 5897 5896 5894 5893 5893 5893 5893 5893 5893 5893
5931 5931 5931 5930 5930 5929 5929 5928 5928 5927 5927 5927 5926 5925 5924 5922 5921 5920 5918 5917 5915 5914 5912 5910 5908 5906 5905 5903 5902 5901 5900 5899 5898 5897 5896 5895 5894 5893 5893 5893 5893 5893 5893
5932 5932 5932 5932 5931 5931 5930 5929 5929 5928 5927 5926 5926 5925 5924 5923 5922 5920 5919 5917 5916 5914 5912 5911 5909 5907 5905 5904 5902 5901 5900 5899 5898 5897 5896 5895 5895 5894 5893 5893 5893 5893 5893
5934 5933 5933 5933 5932 5932 5931 5930 5929 5928 5927 5926 5926 5925 5924 5923 5922 5921 5919 5918 5916 5915 5913 5911 5909 5908 5906 5904 5903 5901 5900 5899 5898 5897 5896 5895 5895 5894 5894 5893 5893 5893 5893
5935 5934 5934 5934 5933 5933 5932 5931 5930 5929 5927 5926 5925 5925 5924 5923 5922 5921 5919 5918 5916 5915 5913 5911 5910 5908 5906 5904 5903 5901 5900 5898 5897 5897 5896 5895 5895 5894 5894 5893 5893 5893 5892
5934 5934 5934 5934 5933 5933 5932 5931 5930 5929 5927 5926 5925 5924 5923 5923 5922 5920 5919 5918 5917 5915 5913 5911 5910 5908 5906 5905 5903 5902 5900 5898 5897 5896 5895 5894 5894 5894 5893 5893 5893 5892 5892
5934 5933 5933 5933 5933 5932 5932 5931 5930 5928 5927 5926 5925 5924 5923 5922 5921 5920 5918 5917 5916 5915 5913 5911 5909 5908 5906 5905 5903 5902 5900 5899 5897 5896 5895 5894 5893 5893 5892 5892 5892 5892 5891
5932 5932 5932 5932 5931 5931 5930 5930 5929 5927 5926 5925 5924 5923 5922 5921 5920 5918 5917 5916 5915 5913 5912 5910 5908 5907 5906 5905 5903 5902 5901 5899 5897 5896 5895 5894 5893 5893 5892 5891 5891 5891 5890
5931 5931 5930 5930 5930 5929 5929 5928 5927 5926 5925 5924 5923 5922 5920 5919 5918 5917 5916 5914 5913 5912 5910 5909 5907 5906 5904 5903 5902 5902 5901 5899 5898 5896 5894 5893 5892 5892 5891 5890 5890 5889 5889
5930 5929 5929 5928 5928 5927 5926 5926 5925 5924 5922 5921 5920 5919 5918 5917 5916 5915 5913 5912 5911 5909 5908 5907 5905 5904 5902 5902 5901 5900 5899 5898 5897 5896 5894 5892 5891 5890 5889 5888 5888 5888 5887
5929 5928 5927 5926 5926 5925 5924 5923 5922 5921 5920 5919 5918 5917 5916 5914 5913 5912 5910 5909 5907 5906 5905 5904 5902 5901 5900 5899 5898 5898 5897 5897 5896 5894 5893 5891 5890 5888 5887 5887 5886 5886 5885
5928 5927 5926 5924 5923 5922 5921 5920 5919 5918 5916 5915 5914 5913 5912 5911 5909 5908 5907 5905 5904 5903 5902 5900 5899 5898 5897 5896 5895 5894 5894 5894 5893 5892 5891 5890 5889 5887 5885 5885 5884 5884 5883
5927 5925 5923 5921 5920 5919 5918 5916 5915 5914 5913 5912 5910 5909 5908 5907 5905 5903 5902 5901 5900 5899 5898 5897 5895 5894 5893 5892 5891 5890 5889 5889 5889 5889 5888 5887 5886 5885 5883 5883 5883 5882 5881
5923 5922 5920 5917 5915 5914 5913 5912 5910 5909 5908 5907 5906 5904 5903 5902 5900 5899 5897 5895 5894 5893 5893 5892 5890 5889 5888 5887 5886 5885 5884 5884 5883 5884 5883 5883 5882 5881 5881 5881 5880 5879 5878
5918 5917 5916 5914 5911 5909 5907 5906 5904 5903 5902 5901 5900 5899 5897 5895 5894 5893 5892 5890 5889 5888 5887 5886 5885 5883 5882 5881 5880 5879 5879 5878 5878 5878 5878 5878 5878 5877 5877 5877 5876 5875 5875
5910 5909 5909 5907 5905 5903 5900 5898 5897 5896 5895 5894 5892 5891 5889 5888 5886 5885 5884 5883 5882 5881 5880 5879 5878 5877 5876 5875 5874 5873 5872 5872 5871 5871 5871 5872 5872 5872 5872 5872 5871 5870 5870
5901 5900 5898 5896 5895 5894 5891 5889 5888 5888 5887 5886 5885 5884 5882 5881 5879 5877 5876 5875 5874 5873 5872 5871 5871 5870 5869 5868 5866 5865 5865 5864 5864 5863 5863 5864 5864 5865 5866 5866 5865 5864 5863
5893 5890 5887 5885 5884 5882 5881 5878 5876 5876 5876 5876 5875 5874 5873 5872 5870 5869 5866 5865 5863 5862 5862 5862 5861 5860 5860 5858 5857 5856 5856 5855 5855 5854 5854 5855 5855 5856 5857 5858 5858 5858 5857
5884 5881 5877 5874 5872 5871 5870 5868 5866 5865 5864 5864 5863 5862 5861 5861 5860 5858 5856 5853 5851 5850 5851 5851 5851 5850 5849 5848 5847 5846 5845 5845 5844 5845 5845 5844 5844 5845 5847 5848 5849 5849 5849
5876 5872 5868 5866 5863 5861 5859 5858 5857 5855 5855 5854 5853 5852 5850 5849 5848 5847 5845 5843 5839 5838 5839 5839 5839 5838 5838 5837 5836 5836 5836 5835 5835 5835 5834 5834 5833 5834 5835 5837 5839 5840 5840
5870 5866 5861 5858 5856 5853 5851 5850 5848 5847 5846 5845 5844 5842 5841 5839 5838 5836 5835 5833 5831 5829 5828 5827 5827 5827 5827 5826 5825 5825 5826 5825 5825 5825 5823 5822 5822 5822 5823 5826 5828 5830 5831
5864 5860 5855 5852 5848 5845 5842 5840 5838 5837 5836 5835 5834 5833 5831 5830 5828 5826 5824 5823 5821 5819 5818 5817 5817 5817 5817 5816 5814 5813 5814 5816 5816 5814 5812 5811 5811 5811 5812 5814 5817 5819 5821
5857 5853 5849 5845 5840 5837 5833 5830 5828 5826 5825 5824 5823 5822 5821 5819 5817 5815 5814 5812 5811 5810 5809 5809 5808 5807 5807 5806 5804 5802 5802 5803 5804 5805 5803 5801 5800 5800 5802 5803 5805 5808 5811
5850 5845 5840 5836 5832 5828 5825 5822 5819 5817 5815 5813 5812 5811 5810 5808 5806 5805 5803 5802 5800 5799 5799 5799 5798 5797 5797 5796 5795 5793 5793 5792 5792 5793 5794 5791 5790 5790 5791 5793 5795 5798 5801
5842 5837 5832 5827 5823 5819 5816 5814 5811 5808 5806 5804 5802 5801 5800 5798 5796 5794 5792 5791 5790 5789 5788 5788 5787 5787 5787 5786 5785 5784 5783 5782 5781 5781 5782 5782 5781 5781 5782 5784 5786 5789 5792
5833 5828 5823 5818 5814 5810 5807 5804 5801 5799 5796 5794 5792 5790 5789 5788 5786 5784 5782 5781 5780 5778 5777 5777 5776 5776 5776 5775 5775 5774 5773 5772 5771 5770 5770 5771 5771 5772 5773 5775 5777 5780 5783